RH
18 16 14 12 10 9 7 6 5 4 4 3 3 3 3 3 3 3 3 3 3 2 2 2 2 3 3 3 4 4 5 5 6 6 6 6 7 7 7 8 8 9 10 10 10 10 9 8 7 7 6 6 7 7 8 9 9 8 8 8 7 7 7 6 5 5 4 6 9 13 18 21 24 25 24 24 24 26 27 31 33 35 35 32 28 23
17 15 13 11 10 8 7 5 4 4 3 3 3 3 3 3 3 3 3 3 3 3 3 2 3 3 3 4 4 5 5 6 6 6 7 7 7 7 8 8 9 9 10 10 10 10 9 8 7 7 6 7 7 8 10 10 10 10 10 9 8 7 7 6 5 5 4 6 9 13 18 22 24 26 26 25 25 25 26 28 31 34 36 36 33 29
16 14 12 10 9 7 6 5 4 4 3 3 3 3 3 3 3 3 3 3 3 3 3 3 3 3 3 4 5 5 6 6 7 7 7 7 7 8 8 9 9 10 10 10 10 10 9 8 7 6 6 7 8 10 11 12 13 13 12 11 9 8 7 6 5 4 4 6 8 12 17 22 25 26 27 26 26 26 26 27 28 31 34 36 36 35
14 13 11 9 8 6 5 4 4 4 4 4 4 4 3 3 3 3 3 3 3 3 3 3 3 3 4 5 5 6 6 7 7 7 8 8 8 8 9 9 10 10 11 11 10 10 9 8 7 6 7 8 9 11 12 14 15 16 15 14 11 9 7 6 5 4 4 5 8 12 17 22 25 27 28 28 27 27 26 26 27 28 31 33 36 37
13 12 10 8 7 6 5 4 4 4 4 4 4 4 4 4 4 4 4 4 3 3 3 3 3 4 4 5 6 6 7 7 8 8 8 8 8 9 9 10 10 11 11 11 10 10 8 7 7 7 7 8 10 12 14 15 17 17 18 16 14 11 9 6 5 4 4 5 8 11 16 21 26 28 30 29 29 28 28 28 27 28 28 30 33 35
12 11 9 8 6 5 5 4 4 4 4 4 4 4 4 4 4 4 4 4 4 4 4 4 4 4 5 6 6 7 8 8 8 8 9 9 9 9 9 10 10 11 11 11 10 9 8 7 7 7 7 9 10 12 14 16 18 18 19 18 16 13 10 8 6 5 4 5 8 11 16 21 26 29 31 31 31 30 30 29 29 29 28 29 30 32
12 10 8 7 6 5 5 4 4 4 4 4 4 4 4 4 4 4 4 4 4 4 4 4 4 5 5 6 7 7 8 9 9 9 9 9 9 9 10 10 11 11 11 11 10 9 8 7 7 7 8 10 11 13 15 17 18 19 19 19 18 16 12 9 7 5 5 6 8 11 16 21 26 30 32 32 32 32 31 31 30 30 30 30 30 30
11 9 8 7 6 5 5 4 4 4 4 4 4 4 4 4 5 5 5 5 5 4 4 4 5 5 6 7 8 8 9 9 9 9 10 9 9 10 10 10 11 11 11 11 10 9 8 7 7 7 8 10 12 14 16 17 18 19 20 20 19 17 15 11 9 6 5 6 8 11 16 21 26 30 33 34 34 34 33 32 32 32 32 31 31 31
10 9 7 6 5 5 4 4 4 4 4 4 4 4 5 5 5 5 5 5 5 5 4 5 5 6 7 8 8 9 9 10 10 10 10 10 10 10 10 10 11 11 11 11 10 9 8 7 7 8 9 11 13 15 16 17 18 19 20 20 20 19 17 13 10 8 6 7 9 12 16 21 26 31 34 35 36 35 35 34 34 33 33 33 33 33
10 8 7 6 5 5 5 4 4 4 4 4 4 5 5 5 5 5 5 5 5 5 5 5 6 6 7 8 9 10 10 10 10 10 10 10 10 10 10 10 11 11 11 10 10 8 7 7 7 8 10 12 14 16 17 18 18 19 20 21 21 20 18 16 13 10 8 8 9 12 17 22 27 32 35 37 38 38 37 36 36 35 35 34 34 34
9 8 7 6 5 5 5 4 4 4 4 4 5 5 5 5 6 6 6 5 5 5 5 5 6 7 7 8 9 10 10 11 11 11 11 11 10 10 10 11 11 11 11 10 9 8 7 7 8 9 11 14 15 17 17 18 18 19 21 22 22 22 21 18 15 12 10 9 10 13 17 22 27 32 36 39 40 40 40 39 38 37 37 36 36 35
9 8 7 6 5 5 5 5 4 4 5 5 5 5 5 6 6 6 6 6 5 5 5 5 6 7 8 9 10 10 11 11 11 11 11 11 11 11 11 11 11 11 11 10 9 8 7 7 8 10 12 15 16 17 18 18 19 20 22 23 24 24 23 21 18 15 12 11 11 13 17 22 27 32 37 40 41 42 43 42 41 40 39 38 38 37
9 8 7 6 5 5 5 5 5 5 5 5 5 6 6 6 6 6 6 6 5 5 5 5 6 7 8 9 10 10 11 11 12 12 11 11 11 11 11 11 11 11 10 10 9 8 7 7 9 11 14 16 17 18 18 18 19 21 22 24 25 26 26 24 21 18 15 14 13 14 17 21 26 31 36 40 42 44 44 44 44 43 42 41 40 39
9 8 7 6 6 5 5 5 5 5 5 5 6 6 6 6 6 6 6 6 6 5 5 6 6 7 9 9 10 11 11 12 12 12 12 12 12 12 12 12 11 11 10 10 8 7 7 8 9 12 15 17 18 18 18 19 20 21 23 24 26 27 28 27 25 23 20 18 17 17 18 21 25 30 35 38 41 44 45 45 45 45 44 43 43 42
9 8 7 6 6 5 5 5 5 5 5 6 6 6 6 6 6 6 6 6 6 6 6 6 7 8 9 10 10 11 11 12 12 12 12 12 12 12 12 12 12 11 10 9 8 7 7 8 10 12 15 17 18 18 18 19 20 21 22 24 26 28 29 30 29 28 26 24 22 21 21 23 25 29 33 36 40 42 44 45 46 46 45 45 44 43
8 8 7 6 6 5 5 5 5 6 6 6 6 6 6 6 6 7 7 6 6 6 6 6 7 8 9 10 10 11 12 12 12 13 13 13 13 13 13 13 12 11 10 9 8 7 7 8 10 13 16 18 18 18 18 19 20 21 22 24 26 28 30 32 33 33 32 30 28 27 26 26 28 30 33 36 39 41 43 44 45 45 45 45 44 44
8 8 7 6 6 6 6 6 6 6 6 6 6 7 7 7 7 7 7 6 6 6 6 7 7 8 9 10 10 11 12 12 13 13 13 14 14 14 13 13 12 11 10 9 8 7 7 8 10 13 17 18 19 19 19 19 20 21 22 24 26 28 30 33 35 36 36 36 35 34 33 33 33 34 36 38 40 42 43 44 45 45 45 45 44 43
8 8 7 6 6 6 6 6 6 6 6 7 7 7 7 7 7 7 7 7 7 7 7 7 8 8 9 10 11 11 12 13 13 13 14 14 14 14 14 14 13 11 10 9 8 7 7 8 11 14 17 18 19 19 19 20 21 22 23 24 26 27 29 32 34 37 39 40 40 40 40 39 39 40 40 42 43 44 45 46 46 46 46 45 44 43
8 8 7 6 6 6 6 6 6 7 7 7 7 7 7 7 7 7 7 7 7 7 8 8 8 8 9 10 11 12 12 13 13 14 14 15 15 15 14 14 13 11 10 8 7 7 7 9 11 14 17 19 19 19 19 20 21 22 23 24 25 26 28 30 32 35 38 40 42 43 44 45 45 45 45 45 46 47 47 47 48 47 47 46 45 43
8 8 7 6 6 6 6 7 7 7 7 7 7 7 7 7 8 8 8 8 8 8 8 8 9 9 10 10 11 12 13 13 14 14 15 15 16 16 15 14 13 11 10 8 7 7 7 9 12 15 18 19 20 20 20 21 22 23 24 24 25 26 26 28 30 32 35 37 40 43 45 46 47 48 48 48 48 49 49 49 49 48 47 46 44 43
8 8 7 7 6 6 7 7 7 7 7 7 7 7 7 7 8 8 8 9 9 9 9 9 9 9 10 11 12 13 13 14 14 14 15 15 15 16 15 14 13 11 9 8 7 8 8 10 13 15 18 19 20 20 20 21 22 24 25 25 25 26 26 27 28 30 32 34 37 39 42 44 46 47 48 49 49 49 49 49 48 47 46 45 43 41
8 8 7 7 7 7 7 7 7 8 8 7 7 7 7 8 8 8 9 9 9 9 9 10 10 10 11 12 13 13 14 14 14 15 15 15 15 15 15 14 12 11 9 8 8 8 9 11 14 16 18 19 20 20 21 22 23 24 25 26 26 26 27 27 28 29 30 32 34 36 38 40 42 44 45 47 47 48 48 47 47 46 44 43 41 39
9 8 7 7 7 7 7 7 7 8 8 8 8 8 8 8 8 9 9 10 10 10 10 10 10 11 12 13 13 14 14 15 15 15 15 15 15 15 14 13 12 10 9 8 8 9 10 13 15 17 19 20 20 21 21 22 23 25 26 26 27 27 28 28 29 29 30 31 32 33 35 36 38 39 41 43 44 44 45 45 44 43 42 40 39 37
9 8 7 7 7 7 7 7 7 8 8 8 8 8 8 9 9 9 10 10 10 11 11 11 11 12 13 14 15 15 15 15 15 15 15 15 15 14 14 12 11 10 8 8 9 10 12 15 17 19 20 21 21 21 22 23 23 24 25 26 27 28 29 29 30 31 32 32 33 33 34 35 35 36 38 39 40 41 41 41 41 40 39 38 36 35
9 8 8 7 7 7 7 7 7 8 8 8 8 8 9 9 10 10 11 11 11 11 11 12 12 13 14 15 15 16 16 15 15 15 14 14 14 14 13 12 10 9 8 9 10 12 14 17 18 20 21 21 21 22 22 22 23 24 24 26 27 28 29 30 32 33 34 35 35 35 35 35 35 36 36 37 38 39 39 39 38 38 37 36 35 35
9 8 8 7 7 7 7 7 8 8 8 8 9 9 9 10 10 11 11 12 12 12 12 12 13 14 15 16 16 16 16 16 15 15 14 14 14 13 12 11 10 9 8 9 11 13 16 18 20 21 22 22 22 22 22 22 22 23 24 25 27 28 30 32 33 35 36 38 39 39 39 38 38 38 38 38 38 39 39 39 38 38 37 37 37 37
9 9 8 7 7 7 7 8 8 8 9 9 9 10 10 10 11 12 13 13 13 13 13 13 14 14 15 16 17 16 16 16 15 15 14 14 13 12 11 10 9 8 7 9 12 15 18 20 21 22 22 22 22 22 22 21 22 22 23 25 27 29 32 34 35 37 39 41 42 43 43 43 42 42 41 41 41 41 42 41 41 41 41 41 42 43
10 9 8 8 8 8 8 8 8 9 9 10 10 10 11 11 12 13 14 14 13 13 13 13 14 15 16 17 17 17 16 15 15 14 14 13 13 12 11 10 9 8 7 9 13 18 20 21 22 22 23 22 22 22 21 21 21 22 24 26 29 31 34 36 38 40 42 44 46 47 48 48 47 47 46 46 46 46 46 46 46 46 46 46 47 48
10 9 8 8 8 8 8 9 9 10 10 10 11 11 11 12 13 14 14 14 14 14 13 13 14 15 16 17 17 17 16 15 15 14 13 13 12 11 10 10 8 7 7 8 13 18 23 23 23 23 23 23 22 21 21 21 21 23 25 28 31 34 36 39 41 43 45 48 50 51 52 52 52 51 51 51 50 50 50 50 50 50 50 50 50 51
10 9 9 8 8 8 9 9 10 10 10 11 11 12 12 13 14 14 15 15 14 14 14 14 14 15 16 17 17 17 16 15 15 14 13 12 12 11 10 9 8 7 7 8 12 17 22 24 24 24 24 23 22 21 20 21 22 24 26 29 33 35 38 41 44 47 50 52 54 55 56 56 55 54 54 53 53 52 52 52 52 52 51 51 51 51
10 10 9 9 9 9 9 10 10 11 11 12 12 12 13 14 14 15 15 15 15 14 14 14 15 16 17 17 17 17 16 15 14 14 13 12 11 11 10 9 8 7 7 9 12 17 21 23 25 25 24 23 22 21 20 21 22 25 28 31 34 37 40 43 47 50 53 56 58 59 59 58 57 55 54 53 52 52 52 52 52 52 52 51 51 51
10 10 9 9 9 9 10 10 11 11 12 12 13 13 14 15 15 16 16 15 15 14 14 15 16 17 17 18 18 17 16 15 14 13 13 12 11 10 10 8 7 7 7 10 14 18 21 23 25 25 24 23 22 21 20 22 24 26 29 32 35 38 41 44 48 52 55 58 60 61 61 59 57 55 53 51 51 50 50 50 51 51 52 52 52 51
11 10 10 9 9 10 10 10 11 12 13 13 14 15 15 16 16 16 16 16 15 15 15 15 16 17 18 18 18 18 16 15 14 13 13 12 11 10 9 8 7 7 7 11 15 20 23 24 25 25 24 23 22 21 21 23 25 28 31 34 36 39 41 45 48 52 55 58 60 60 60 59 57 54 51 50 48 47 47 48 49 51 52 53 53 53
11 10 10 10 10 10 10 11 12 13 14 14 15 16 16 17 17 17 17 16 15 15 15 16 17 18 18 19 18 18 17 16 14 13 13 12 11 10 9 8 7 6 8 11 16 20 24 25 25 25 24 23 22 22 22 24 27 30 33 35 37 40 42 45 48 51 53 55 56 57 58 57 55 53 51 49 47 45 45 46 48 50 51 53 53 53
11 10 10 10 10 11 11 12 13 14 15 16 16 17 17 18 18 18 17 16 16 15 16 16 17 18 19 19 19 18 17 16 15 13 12 11 11 10 9 7 7 6 8 12 17 21 24 26 26 25 24 23 22 22 23 26 29 32 35 37 39 41 43 46 48 49 51 52 53 54 55 55 55 53 51 49 46 44 44 44 46 48 50 51 51 51
11 10 10 10 11 11 12 13 14 15 16 17 17 18 18 18 18 18 18 17 16 16 16 17 18 19 19 19 19 18 17 16 15 14 12 11 10 10 8 7 6 7 8 12 17 21 25 26 26 26 24 23 22 22 24 27 31 34 37 39 40 42 44 46 48 49 49 49 50 51 52 53 54 54 53 50 47 45 43 43 44 45 46 46 46 46
11 11 10 11 11 12 13 14 15 16 17 18 18 18 19 19 19 18 18 18 17 17 18 18 19 20 20 20 19 18 17 16 15 14 13 11 10 9 8 7 6 7 9 13 18 22 25 26 26 26 25 23 22 22 24 28 32 36 39 40 42 43 45 47 48 49 49 49 49 49 51 52 54 55 55 53 50 47 44 43 43 42 42 41 41 41
11 11 11 11 12 13 14 15 16 17 18 18 19 19 19 19 19 19 18 18 18 18 19 20 20 21 21 20 19 18 17 16 15 14 13 11 10 9 8 7 7 8 10 14 18 22 25 26 27 26 26 24 23 23 24 28 33 38 42 42 43 44 45 46 47 48 48 49 49 50 51 52 54 56 56 55 52 50 46 44 41 39 38 37 36 36
12 11 12 12 13 14 15 16 17 18 18 19 19 19 20 20 20 20 19 19 19 20 20 21 22 22 22 21 20 19 18 16 15 14 12 11 10 9 7 7 7 8 11 15 19 23 26 27 28 27 26 25 24 24 25 29 34 39 43 44 45 45 45 45 45 46 47 48 49 51 52 53 54 55 56 55 53 50 47 43 40 38 36 35 33 33
12 12 12 13 13 14 15 16 17 18 19 19 19 20 20 21 21 21 20 20 20 21 22 23 23 23 23 22 20 19 18 17 15 14 12 11 10 8 7 7 7 9 12 16 20 24 26 28 29 29 28 26 25 26 27 31 35 40 44 46 48 48 46 44 43 43 43 45 47 49 51 52 53 53 54 52 50 47 44 40 37 35 34 34 33 33
13 12 13 13 14 15 16 17 18 18 19 19 20 21 21 22 22 22 21 21 22 22 23 24 24 24 24 23 21 20 18 17 15 14 12 11 9 8 7 7 8 10 13 17 20 24 26 28 30 30 29 27 27 27 30 34 37 41 45 48 49 49 46 43 42 40 40 41 43 46 48 49 50 51 50 48 45 42 38 35 34 33 32 33 34 35
13 13 13 14 15 16 17 17 18 19 19 20 21 22 22 22 22 22 22 22 23 23 24 25 25 25 24 23 22 20 18 17 15 13 12 10 9 8 7 7 8 10 13 17 21 24 27 29 30 31 30 29 28 29 32 36 40 43 47 49 50 49 47 44 42 39 38 37 38 40 43 45 46 47 47 45 42 38 34 32 30 30 31 32 34 37
14 14 14 15 15 16 17 18 19 20 20 21 22 23 23 23 23 23 22 23 23 24 25 25 25 25 25 23 22 20 19 17 15 13 11 10 9 7 7 8 9 12 15 18 21 24 26 29 31 32 32 30 30 31 34 38 42 46 49 50 50 50 49 47 44 41 38 36 35 36 38 40 42 44 44 43 40 37 33 31 29 29 30 32 35 38
14 14 14 15 16 17 18 19 20 21 21 22 23 23 24 24 23 23 23 23 23 24 25 25 25 25 24 23 22 20 18 16 15 13 11 10 8 7 7 8 10 13 17 19 21 23 26 28 31 32 33 32 31 32 34 39 43 47 50 51 51 51 50 49 46 43 41 37 35 35 35 37 39 41 43 43 42 40 36 33 30 29 30 32 35 39
14 15 15 16 17 18 19 20 21 22 22 23 24 24 24 24 24 24 23 23 24 24 25 25 25 24 24 23 21 20 18 16 14 12 11 9 8 7 7 10 12 15 19 21 23 24 25 27 29 31 33 32 32 32 34 38 43 47 51 53 53 53 51 49 47 46 44 41 39 37 36 37 39 41 43 44 45 44 41 37 33 31 30 32 35 38
15 16 16 17 18 19 20 21 22 22 23 24 24 25 25 25 24 24 24 24 24 25 25 25 25 24 23 22 21 19 18 16 14 12 10 9 8 7 8 11 14 18 21 23 24 25 26 26 28 30 31 31 32 32 34 38 43 47 52 55 56 56 54 51 50 48 46 44 42 41 39 39 40 41 43 45 47 47 46 42 38 35 32 33 34 37
16 17 17 18 19 20 21 22 22 23 24 24 25 25 25 25 25 25 24 24 25 25 26 25 25 24 23 21 20 19 17 15 13 11 10 8 7 7 8 11 16 20 24 26 27 27 27 27 27 28 29 29 30 31 33 37 42 47 52 56 57 58 56 54 52 50 47 46 44 42 41 41 41 42 43 44 46 47 48 46 42 39 36 35 35 36
17 18 18 19 20 21 22 23 23 24 25 25 26 26 26 25 25 25 25 25 25 26 26 26 25 24 22 21 20 18 17 15 13 11 9 8 7 7 8 11 16 21 25 28 29 30 29 28 27 27 27 27 28 29 33 37 43 48 53 57 59 59 58 55 53 51 49 47 44 42 40 39 39 40 42 43 44 45 46 46 44 42 39 38 37 38
18 18 19 19 20 22 23 23 24 25 25 26 26 26 26 26 25 25 25 25 26 26 26 26 25 24 22 21 19 18 17 15 13 11 9 7 6 6 7 10 15 20 25 28 31 32 33 31 29 27 26 25 26 27 31 38 44 50 55 58 59 60 58 56 54 52 50 47 44 41 38 36 36 37 38 39 40 42 43 43 43 43 42 41 40 40
18 19 19 20 21 22 23 24 25 25 26 26 27 27 26 26 26 26 26 26 26 27 27 26 25 24 22 21 19 18 16 14 12 10 8 7 6 6 7 10 14 19 24 27 30 32 34 33 31 28 26 24 24 26 30 38 45 51 56 59 60 59 58 56 54 51 49 46 43 39 36 34 33 33 34 35 36 38 39 40 41 41 42 42 42 42
19 19 20 21 22 23 24 25 25 26 26 27 27 27 27 26 26 26 26 27 27 28 28 27 25 24 22 20 19 18 16 14 12 10 8 7 6 6 7 10 14 18 22 25 27 29 31 32 31 29 26 23 22 25 30 37 45 51 57 59 59 58 57 56 53 50 47 43 40 36 33 31 30 30 30 31 33 34 35 37 38 40 41 41 42 43
Wind_Speed
42 43 44 45 46 47 48 49 50 52 54 55 56 57 58 59 60 62 63 64 66 67 69 70 71 72 74 75 77 78 80 82 84 85 87 88 89 90 90 90 90 89 89 89 88 87 85 82 79 75 70 66 61 59 57 55 54 54 53 51 50 50 49 48 47 45 43 41 39 38 37 36 36 35 34 33 32 31 30 29 29 28 28 27 26 26
42 43 44 45 46 47 48 50 51 52 53 55 56 57 58 60 61 63 64 65 66 68 69 70 71 73 74 76 77 79 81 82 84 86 87 88 89 90 90 90 90 89 89 89 88 86 85 82 78 74 69 65 61 58 56 55 54 53 52 51 50 49 48 47 46 44 42 40 38 37 36 35 35 34 34 33 32 31 30 29 29 28 28 27 26 26
42 43 44 45 46 47 49 50 51 53 54 55 56 57 58 60 61 63 65 66 67 68 69 70 72 73 75 76 78 79 81 83 84 86 87 88 89 90 90 90 90 89 89 89 88 86 84 81 78 73 68 64 60 58 56 55 54 53 52 51 50 48 48 47 45 44 41 39 37 36 35 34 34 34 33 32 32 31 30 29 28 28 28 27 27 26
42 43 44 45 46 48 49 50 52 53 54 55 56 57 59 60 62 63 65 66 67 69 70 71 72 73 75 76 78 80 81 83 85 86 87 89 89 90 90 90 90 89 89 89 88 86 84 81 77 72 67 63 60 58 56 55 54 53 52 50 49 48 47 46 44 43 41 38 37 35 34 33 33 33 32 32 31 31 30 29 28 28 28 27 27 27
42 43 44 46 47 48 49 51 52 53 55 55 56 57 59 60 62 64 65 67 68 69 70 71 72 74 75 77 79 80 82 83 85 86 88 89 90 90 90 90 90 90 89 88 87 86 83 80 76 71 66 62 59 58 56 55 54 53 51 50 49 47 46 45 44 42 40 38 36 34 33 32 32 32 31 31 31 30 30 29 28 28 28 27 27 27
42 43 44 46 47 48 50 51 53 54 55 56 57 58 59 60 62 64 66 67 69 70 71 72 73 74 75 77 79 81 82 84 85 86 88 89 90 90 90 90 90 90 89 88 87 85 82 79 74 70 65 62 59 58 57 55 54 53 51 50 48 47 45 44 43 41 39 37 35 34 33 32 31 31 31 30 30 30 29 29 28 28 27 27 27 27
42 43 44 46 47 49 50 51 52 54 55 56 58 59 60 61 62 64 65 67 69 70 72 73 74 75 76 77 79 81 82 84 85 87 88 89 89 90 90 90 90 90 89 88 87 84 81 78 73 69 65 62 59 58 57 56 54 53 51 49 47 46 45 43 42 40 39 37 35 33 32 31 31 30 30 30 30 29 29 29 28 28 27 27 27 27
43 44 45 46 48 49 50 51 52 53 54 55 57 59 60 62 63 64 66 67 68 70 71 73 75 76 77 78 79 81 83 84 86 87 88 89 90 90 90 90 90 90 89 88 86 84 80 76 72 68 64 61 60 58 57 56 54 52 50 49 47 45 44 43 41 40 38 36 34 33 32 31 30 30 30 29 29 29 29 28 28 28 28 27 27 27
43 44 46 47 48 49 51 52 53 53 54 55 56 58 60 62 64 66 67 68 69 69 71 72 74 76 78 79 80 82 83 85 86 87 88 89 90 90 91 91 90 90 89 88 85 83 79 75 71 67 64 61 60 58 57 56 54 52 50 48 46 45 43 42 41 39 38 36 34 33 31 31 30 30 29 29 29 29 28 28 28 28 28 27 27 27
43 45 46 47 48 49 50 52 53 54 54 55 56 57 58 60 63 65 67 68 69 70 71 72 73 75 77 80 81 82 84 85 86 87 88 89 90 91 91 91 91 90 89 87 85 82 78 74 70 66 63 61 59 58 57 55 54 52 50 48 46 44 43 42 40 39 37 35 34 32 31 30 30 29 29 29 29 28 28 28 28 28 28 27 27 27
44 45 46 48 49 50 50 51 52 54 54 56 57 58 59 60 62 64 66 68 69 71 72 72 73 74 76 79 81 83 84 86 87 88 89 90 90 91 91 91 91 90 88 86 83 80 76 72 68 65 62 60 59 58 57 55 53 51 49 47 45 44 43 41 40 38 37 35 34 32 31 30 30 29 29 29 29 29 28 28 28 28 28 28 28 27
44 46 47 48 49 50 51 52 53 54 54 56 57 59 60 61 62 63 65 67 69 70 72 73 74 75 77 78 81 83 84 86 87 88 89 90 91 91 91 91 91 90 88 86 83 79 75 70 66 63 61 60 59 57 56 54 53 51 49 47 45 43 42 41 39 38 37 35 33 32 31 30 30 29 29 29 29 29 29 29 29 28 28 28 28 28
45 46 47 48 49 50 51 52 53 54 55 56 57 58 60 62 63 64 66 67 69 70 72 73 75 76 78 79 81 83 84 86 87 88 89 90 90 91 91 91 91 90 88 85 82 77 73 69 65 62 60 59 57 56 55 53 52 50 48 46 44 43 41 40 39 38 36 35 33 32 31 30 29 29 29 29 29 29 29 29 29 29 29 29 29 29
45 46 47 48 49 50 51 52 53 54 55 56 57 58 60 61 63 65 66 68 69 70 72 73 75 76 78 79 81 83 85 86 87 89 89 90 90 90 91 91 91 89 87 84 81 76 71 67 63 61 59 58 56 55 54 53 51 50 48 46 44 43 41 40 39 38 36 35 34 32 31 30 29 29 29 29 29 29 29 30 30 30 30 30 30 30
45 47 48 49 50 50 51 52 53 54 55 56 57 59 60 62 63 65 66 68 69 71 72 73 75 76 78 79 80 83 85 86 88 88 89 90 91 91 91 91 91 90 87 84 80 75 70 65 61 59 57 56 55 54 53 52 50 49 48 46 44 43 41 40 39 38 37 35 34 33 31 30 30 29 29 29 29 29 30 30 30 30 31 31 31 31
46 47 48 49 50 51 51 52 53 54 56 57 58 60 61 62 64 65 67 68 69 71 72 73 74 76 78 80 81 82 84 86 87 88 89 90 91 91 91 91 90 89 87 83 79 74 69 64 61 58 56 55 54 52 51 50 50 49 47 46 45 43 41 40 39 38 37 36 34 33 32 31 30 30 30 30 30 30 30 30 31 31 31 31 31 32
46 47 48 49 50 51 52 53 54 55 56 58 59 60 61 63 64 66 67 68 70 71 72 73 73 75 77 80 82 83 84 86 87 88 89 89 90 91 91 90 89 88 86 83 78 73 68 63 60 57 55 54 52 51 50 49 48 48 47 46 45 43 42 40 39 38 37 36 35 34 33 32 31 31 31 30 30 31 31 31 31 31 32 32 32 32
46 47 48 49 50 51 52 53 54 56 57 58 60 61 62 63 65 66 68 69 70 71 73 74 74 75 77 79 81 83 85 86 87 88 89 89 90 91 91 90 88 87 85 81 77 72 67 62 59 56 54 53 51 50 49 48 47 47 46 46 45 43 42 40 39 38 36 35 34 33 33 32 31 31 31 31 31 31 31 32 32 32 32 33 33 33
46 47 48 49 50 51 52 53 54 56 57 58 60 61 63 64 66 67 68 70 71 72 73 74 75 77 78 79 81 83 85 86 87 88 88 88 89 90 90 89 88 86 83 80 76 71 66 62 59 56 54 52 51 49 48 47 46 46 45 45 44 44 42 41 40 38 37 35 34 33 33 32 31 31 31 31 31 31 32 32 32 33 33 33 33 34
47 48 48 49 50 52 53 54 55 56 57 59 60 61 62 64 66 67 69 70 72 73 74 75 76 77 78 80 81 83 85 86 87 88 88 88 89 89 89 88 86 84 82 79 75 70 66 62 58 56 54 52 50 48 47 46 45 45 44 44 44 44 43 42 41 39 38 36 35 34 33 32 32 31 31 31 31 31 31 32 32 32 33 33 34 34
47 48 49 50 50 52 53 54 55 57 58 59 60 61 63 64 66 67 69 70 72 73 75 75 77 78 79 80 82 83 85 86 87 87 88 88 89 89 88 86 84 82 80 77 73 69 65 61 58 56 54 52 50 48 46 45 44 44 44 44 43 43 43 42 42 40 39 38 36 35 34 33 33 32 32 31 31 31 31 31 32 32 32 33 33 33
47 48 49 50 51 52 53 54 56 57 58 59 61 62 63 65 66 68 69 71 72 74 75 76 77 78 79 81 82 84 85 86 86 87 87 88 88 88 87 85 83 80 77 74 71 68 64 61 58 56 54 52 50 48 46 45 44 43 43 43 43 43 43 42 42 41 40 39 38 37 36 35 34 33 32 32 31 31 31 31 31 31 31 32 32 32
47 48 49 50 51 52 53 55 56 57 59 60 61 62 63 65 66 68 69 71 72 74 75 76 77 79 80 81 82 84 85 86 87 87 87 87 87 87 86 84 81 78 75 72 69 66 63 60 58 56 54 52 50 48 47 45 44 44 43 43 43 43 42 42 42 41 40 39 38 37 36 35 34 33 32 32 31 31 30 30 30 30 30 30 29 29
48 49 50 50 51 52 54 55 56 57 59 60 61 63 64 65 66 68 69 71 72 74 75 76 78 79 80 82 83 84 85 86 87 87 87 87 87 86 85 82 79 76 73 70 67 64 61 59 57 55 54 52 50 49 47 46 45 44 44 43 43 43 42 42 41 41 40 39 38 37 36 35 34 33 32 31 30 29 28 28 28 28 27 27 27 26
48 49 50 51 52 53 54 55 57 58 59 60 62 63 64 66 67 68 70 71 72 74 75 76 77 79 80 81 83 84 85 86 87 87 87 87 87 86 84 81 77 73 70 67 65 62 60 58 57 55 54 52 50 49 48 47 46 45 45 44 44 43 43 42 41 40 40 39 38 37 36 35 34 32 31 30 29 28 27 27 26 26 26 26 25 25
48 49 50 51 52 54 55 56 57 58 60 61 62 63 64 66 67 69 70 71 72 73 74 75 77 78 79 81 82 84 85 86 87 87 87 87 87 86 84 81 76 72 68 65 63 61 59 57 56 54 53 51 50 49 48 47 47 46 46 45 45 44 43 42 41 40 39 38 38 37 36 35 33 32 31 30 29 28 27 27 26 26 26 25 25 25
49 50 51 52 53 54 56 57 58 59 60 61 62 63 64 66 68 69 70 71 72 73 73 74 76 77 79 81 82 83 85 86 87 87 87 87 86 85 83 80 76 70 66 62 60 58 57 56 55 53 52 51 50 49 48 48 48 48 47 47 46 45 44 43 42 40 39 38 37 36 35 35 34 32 31 30 29 28 28 27 27 27 26 26 26 25
49 50 52 53 54 55 56 57 58 59 60 61 62 64 65 66 67 69 70 71 72 73 73 74 75 77 78 80 82 83 84 85 86 87 88 87 86 84 82 79 75 69 64 60 57 56 55 54 54 52 51 50 49 48 48 49 49 49 48 48 47 46 44 43 42 40 39 38 37 36 35 34 33 33 32 31 30 29 28 28 27 27 27 27 26 26
50 51 52 53 54 55 56 57 58 60 61 62 63 64 65 66 67 69 70 71 72 73 74 74 75 76 78 80 82 83 84 85 86 87 88 87 86 85 83 79 74 68 63 59 56 54 53 53 52 52 50 49 49 48 49 49 49 49 49 48 47 46 45 43 42 40 39 38 36 35 35 34 33 33 32 31 30 29 29 28 28 28 27 27 27 26
50 51 52 53 54 55 57 58 59 60 61 62 63 64 65 66 68 69 70 71 72 73 74 75 76 77 78 80 82 83 84 85 86 87 87 86 85 84 82 78 73 68 63 58 54 52 52 51 51 50 50 49 48 48 49 49 49 49 49 48 47 46 44 43 42 40 39 37 36 35 34 34 33 32 32 31 30 29 29 28 28 28 28 27 27 27
51 52 53 54 55 56 57 58 59 60 61 62 63 64 66 67 68 69 70 71 72 73 74 75 76 77 79 80 81 83 84 85 86 87 87 86 85 84 81 77 72 67 62 57 53 51 50 50 50 49 49 48 48 49 49 49 49 49 48 47 46 45 44 42 41 40 38 37 36 35 34 33 33 32 31 31 30 29 29 28 28 28 27 27 27 27
51 52 53 54 55 56 57 58 59 60 61 63 64 65 66 67 68 69 70 71 72 73 74 75 76 78 79 81 82 83 84 85 86 87 87 86 85 84 81 76 71 66 62 57 53 51 49 49 48 48 48 48 49 49 50 50 50 49 48 47 45 44 43 41 40 39 38 37 36 35 34 33 33 32 31 31 30 29 29 28 28 27 27 27 27 26
51 52 53 54 55 56 57 58 60 61 62 63 64 65 67 68 69 69 70 71 72 73 74 75 76 78 80 81 82 84 84 85 86 87 87 86 85 83 80 76 70 65 60 56 53 51 50 48 48 47 47 48 49 49 50 50 50 49 48 46 45 44 42 41 40 38 37 36 35 34 34 33 32 32 31 30 30 29 29 28 27 27 26 26 26 25
51 52 53 54 55 57 58 59 60 61 62 63 65 66 67 68 69 70 71 71 72 73 74 75 76 78 80 81 83 84 85 86 87 87 87 86 85 82 79 75 70 64 59 55 53 51 50 49 48 47 47 48 49 50 50 50 50 49 48 47 45 44 42 41 39 38 36 35 34 33 33 32 32 31 31 30 30 29 29 28 27 27 26 25 24 23
51 52 54 55 56 57 58 59 60 61 62 64 65 66 67 68 69 70 71 72 73 73 74 75 76 78 79 81 83 84 85 86 87 87 87 86 84 82 78 74 69 64 59 54 52 50 49 48 48 47 47 48 49 49 50 50 50 49 48 47 46 44 43 41 40 38 36 34 33 32 32 31 31 30 30 30 30 30 29 29 28 27 25 24 22 21
52 53 54 55 56 57 58 59 60 62 63 64 65 66 67 69 70 71 71 72 73 74 75 76 77 78 80 81 82 83 85 86 87 87 87 86 84 81 77 73 68 63 58 55 52 50 48 48 47 47 47 47 48 49 49 50 49 49 48 47 46 45 44 42 40 38 36 34 33 32 31 30 30 30 30 30 30 30 30 29 28 27 25 23 21 20
52 53 54 55 56 57 58 59 60 61 63 64 65 66 68 69 70 71 72 73 73 74 75 77 78 79 81 82 83 84 85 86 87 87 87 85 83 80 76 72 67 63 58 54 52 50 49 47 47 46 47 47 48 49 49 49 49 49 48 48 47 46 44 43 41 39 37 34 33 31 30 29 28 28 29 29 30 30 30 30 29 27 25 23 21 19
52 53 54 55 56 57 58 59 60 61 63 64 65 67 68 69 70 71 72 73 74 75 76 77 78 80 81 83 84 85 86 86 87 87 86 85 82 79 75 71 67 62 58 55 52 50 49 47 47 46 47 47 48 49 49 49 48 48 48 48 47 46 45 44 42 39 37 35 33 31 29 28 27 27 27 28 29 30 30 30 29 27 25 23 21 19
52 53 54 55 56 57 58 59 60 61 63 64 65 67 68 69 70 71 72 73 74 75 76 77 79 80 82 83 84 85 86 87 87 86 85 83 81 77 73 69 65 62 58 55 53 51 49 47 47 46 46 47 48 49 49 49 49 48 48 48 47 47 45 44 42 40 37 35 33 31 29 28 27 26 26 27 28 29 29 28 27 26 24 22 21 19
52 53 54 55 56 57 58 59 60 61 63 64 66 67 68 69 70 71 72 73 74 75 76 78 79 81 82 83 84 85 86 86 86 86 84 82 79 76 72 68 64 60 58 55 53 51 49 48 47 46 46 47 47 48 48 49 49 48 48 47 47 46 46 44 43 40 38 36 33 31 30 28 27 26 26 27 27 27 27 27 25 24 22 21 20 19
52 53 54 55 56 57 58 59 60 61 63 64 66 67 68 69 70 71 72 73 74 75 76 78 80 82 83 84 85 85 86 86 86 85 83 81 78 74 70 66 62 59 57 54 52 51 49 48 47 46 46 46 47 47 48 48 48 48 48 47 47 46 46 45 43 41 38 36 34 32 30 29 28 27 27 27 27 27 27 26 24 22 21 20 19 19
52 53 54 55 56 57 58 59 60 62 63 64 65 67 68 69 70 70 71 72 73 74 76 77 79 81 83 84 85 86 86 85 85 84 82 80 76 73 69 65 61 58 56 54 52 50 49 47 46 46 46 46 46 46 46 47 47 47 47 47 47 46 45 45 43 41 39 37 35 33 31 30 29 28 27 27 27 27 27 25 24 22 20 19 19 18
52 53 54 55 56 57 58 59 60 62 63 64 65 66 67 68 69 70 71 71 72 74 75 76 78 80 81 82 84 85 85 85 84 83 81 78 75 71 67 64 60 57 55 53 51 50 48 47 46 45 45 45 45 45 45 45 45 46 46 47 47 46 45 44 43 42 40 38 36 34 33 31 30 29 28 28 28 27 27 26 24 22 21 20 19 19
52 53 54 55 56 57 58 59 60 62 63 64 65 66 67 68 69 70 70 71 72 73 74 76 77 79 80 81 82 83 84 84 83 82 79 77 73 69 66 62 59 57 54 52 50 49 48 47 46 45 45 44 44 44 43 43 44 44 45 46 46 46 46 45 44 43 41 39 37 36 34 33 31 30 29 28 27 27 27 26 25 23 22 21 20 19
52 53 54 55 56 57 58 59 60 61 63 64 65 66 67 68 69 69 70 71 72 73 74 75 77 78 79 80 81 82 82 82 82 80 78 75 72 68 64 61 58 56 54 52 50 48 47 46 45 44 44 43 43 43 42 42 42 43 43 44 45 45 45 45 44 43 42 41 39 38 36 35 33 31 29 28 27 26 26 25 25 24 23 22 21 20
52 53 54 55 56 57 58 59 60 62 63 64 65 66 67 68 69 70 70 71 72 73 74 75 76 78 79 80 80 81 81 81 80 79 76 73 70 66 63 59 57 54 53 51 50 49 47 46 44 44 43 43 42 42 41 41 41 41 42 43 43 44 44 44 44 43 42 42 41 40 38 37 35 33 31 29 27 25 25 25 24 24 23 22 21 21
52 53 54 55 56 57 58 59 60 62 63 64 65 66 67 68 69 70 70 71 72 73 74 75 77 78 79 79 80 80 80 80 79 77 75 71 68 64 60 57 55 53 52 51 50 49 47 46 45 44 43 42 41 41 40 40 40 41 41 41 42 42 42 42 42 42 42 41 41 40 39 38 36 34 32 29 27 25 24 24 23 23 23 22 21 21
52 53 54 55 55 56 58 59 60 62 63 64 66 67 67 68 69 70 70 71 72 73 74 75 77 78 79 80 80 80 80 79 78 76 73 70 66 62 58 55 53 52 51 50 49 49 48 46 45 44 43 41 40 40 39 39 40 40 40 41 41 41 40 40 40 40 40 40 41 40 39 38 36 35 32 30 28 26 24 23 23 23 23 22 22 21
52 53 53 54 55 56 58 59 60 62 63 65 66 67 68 68 69 70 70 71 72 73 74 75 77 78 79 80 80 81 80 80 78 75 72 68 64 60 56 53 51 49 49 48 48 48 47 47 45 44 43 41 40 39 39 39 39 40 40 40 39 39 39 39 39 39 39 39 39 39 39 38 36 34 32 30 28 26 25 24 23 23 23 22 22 21
51 52 53 54 55 56 57 59 60 62 63 65 66 67 68 68 69 70 70 71 72 73 74 76 77 78 79 80 80 81 80 79 78 75 72 68 64 59 55 52 49 47 46 45 45 45 46 46 45 44 43 41 40 39 39 39 39 39 39 39 38 37 37 37 37 37 37 38 38 38 38 37 35 34 32 31 29 27 25 24 23 23 23 23 22 22
51 52 53 54 55 56 58 59 60 62 63 65 66 67 68 68 69 70 71 71 72 74 75 76 77 78 79 80 81 81 80 79 77 74 71 67 63 59 55 51 48 46 44 44 43 43 43 43 44 44 43 41 40 39 39 39 39 39 39 38 37 36 35 35 35 35 36 36 37 37 36 36 35 34 32 31 30 28 26 25 24 23 23 23 23 23
Wind_Direction
329 329 329 330 330 329 329 330 330 331 331 332 332 333 334 334 334 334 335 335 336 336 336 337 337 337 338 338 339 340 340 341 341 342 342 343 343 343 343 343 343 342 342 341 340 340 339 338 336 335 333 331 329 327 326 326 325 325 324 323 323 322 322 322 322 321 320 318 316 315 315 315 317 318 318 317 315 312 310 308 306 306 306 307 306 306
329 329 329 330 330 330 330 330 331 332 332 333 333 334 334 334 334 335 335 336 336 336 337 337 337 338 338 339 339 340 341 341 342 342 343 343 344 344 344 343 343 342 342 341 340 340 339 338 336 335 333 331 329 328 327 326 326 325 324 323 322 322 321 321 321 321 319 318 315 314 313 314 315 317 317 317 316 314 311 308 306 305 304 304 304 304
329 329 329 330 330 330 330 331 332 332 333 333 333 334 334 335 335 335 336 336 336 337 337 337 338 338 339 339 340 341 341 342 342 343 343 344 344 344 344 344 343 342 342 341 340 340 339 338 337 335 333 331 330 328 327 327 326 326 325 324 322 321 321 321 320 320 319 317 315 313 312 312 314 315 316 317 316 315 312 310 307 305 304 303 303 302
329 329 330 330 330 331 331 332 332 333 333 333 334 334 334 335 335 336 336 336 337 337 338 338 338 339 339 340 340 341 342 342 343 343 344 344 344 344 344 344 343 342 342 341 340 340 339 338 337 335 334 332 330 329 328 328 327 326 325 324 323 322 321 320 320 319 318 316 314 312 311 311 312 314 315 316 316 315 313 311 309 306 304 302 301 301
330 330 330 330 331 332 332 333 333 333 333 334 334 334 335 335 336 336 336 337 337 338 338 338 339 339 340 340 341 341 342 342 343 343 344 344 345 345 344 344 343 342 342 341 340 340 339 338 337 336 334 332 331 330 329 329 328 327 326 325 324 322 321 320 320 319 318 316 313 311 309 309 310 312 314 315 315 315 314 312 310 308 305 303 302 300
330 330 331 331 332 332 333 333 334 334 334 334 334 335 335 335 336 336 337 337 338 338 338 339 339 340 340 341 341 342 342 343 343 344 344 344 345 345 344 344 343 343 342 341 341 340 339 338 337 336 334 333 332 331 330 330 329 328 327 326 324 323 322 321 320 319 317 315 313 310 308 308 308 310 312 313 314 315 314 313 311 309 307 305 303 301
330 330 331 332 332 333 333 333 334 334 334 334 334 335 335 336 336 337 337 338 338 339 339 339 340 340 341 341 342 342 343 343 344 344 344 345 345 345 344 344 343 343 342 341 341 340 339 338 337 336 335 334 333 332 331 331 330 329 328 327 325 324 323 322 320 319 317 315 312 310 308 307 307 308 310 311 313 313 313 313 312 311 309 307 304 302
330 331 332 333 333 333 333 333 334 334 334 334 334 335 335 336 337 337 338 339 339 340 340 340 340 340 341 342 342 343 343 343 344 344 344 344 345 345 344 344 344 343 342 342 341 340 339 339 338 337 335 335 334 333 333 332 331 330 329 328 326 325 324 323 321 320 318 315 312 310 307 306 305 306 308 309 311 312 312 312 312 311 310 308 306 304
331 332 333 333 333 333 333 333 333 334 334 334 335 335 336 336 337 338 338 339 339 340 340 340 340 341 341 342 342 343 343 344 344 344 344 344 345 345 345 344 344 343 343 342 341 340 340 339 338 337 336 335 335 334 334 334 333 332 331 329 328 326 325 324 322 321 319 316 313 310 307 305 304 304 306 307 308 310 311 311 311 311 310 310 308 307
332 333 333 333 333 333 333 333 333 333 334 334 335 336 336 337 338 338 338 339 339 340 340 341 341 341 341 342 342 343 343 344 344 344 344 344 344 345 345 344 344 344 343 342 342 341 340 339 338 337 337 336 336 335 335 335 334 333 332 331 329 328 327 325 324 322 320 317 314 310 307 305 304 303 304 305 306 308 309 309 310 310 310 310 309 308
333 333 333 333 333 333 333 333 333 334 334 335 335 336 337 337 338 338 338 339 339 340 340 341 341 342 342 342 343 343 344 344 344 344 344 344 344 344 344 344 344 344 343 343 342 341 340 339 338 338 337 337 337 337 336 336 336 335 334 332 331 329 328 327 326 324 322 319 315 311 308 305 303 303 303 304 305 306 307 307 308 308 308 308 308 308
333 333 333 333 333 333 333 333 333 334 335 335 336 336 337 337 338 338 339 339 339 340 340 341 341 342 342 343 343 343 344 344 344 344 344 344 344 344 344 344 344 344 344 343 342 342 341 340 339 338 338 338 338 338 338 337 337 336 335 334 332 331 330 329 328 326 324 321 317 313 310 306 304 303 302 302 303 304 305 305 306 306 306 306 307 307
333 333 333 332 332 333 333 333 334 334 335 336 336 336 337 337 338 338 339 339 340 340 341 341 341 342 342 343 343 344 344 344 344 344 344 344 344 344 344 344 344 344 344 343 343 342 341 340 339 339 338 338 338 338 339 338 338 338 337 335 334 333 332 331 329 328 326 324 320 316 312 308 305 303 302 302 302 303 303 304 304 304 304 304 305 305
333 333 332 332 333 333 333 334 334 335 335 336 336 337 337 337 338 338 339 339 340 340 341 341 342 342 342 343 344 344 344 344 344 344 344 344 344 344 344 344 344 344 344 344 343 342 341 341 340 339 339 339 339 339 339 340 339 339 338 337 336 335 333 332 331 330 329 326 324 320 316 312 308 305 303 302 302 302 302 302 302 302 303 303 303 303
333 333 332 333 333 333 334 334 334 335 335 336 336 337 337 338 338 339 339 340 340 340 341 341 342 342 342 343 344 344 344 344 344 344 344 344 344 344 344 344 344 344 344 344 344 343 342 341 340 340 340 340 340 340 340 341 340 340 340 339 338 336 335 334 333 331 330 329 327 324 320 316 312 309 306 304 303 302 302 302 302 301 302 302 302 302
332 332 333 333 333 333 334 334 335 335 336 336 337 337 338 338 338 339 339 340 340 340 341 342 342 342 342 343 344 344 345 344 344 344 344 344 344 344 344 344 344 344 344 344 344 343 342 342 341 341 341 341 341 341 341 341 341 341 341 340 339 338 337 335 334 332 331 330 328 326 324 320 317 313 310 308 306 304 303 302 302 302 302 301 302 302
332 332 333 333 333 334 334 335 335 336 336 337 337 338 338 338 338 339 339 339 340 340 341 341 342 343 343 343 343 344 345 345 345 344 344 344 344 344 344 344 344 344 344 344 344 343 343 342 342 342 341 341 342 342 342 342 343 342 342 341 341 339 338 336 334 333 332 330 329 327 325 323 320 317 314 311 309 307 305 304 304 303 303 303 302 302
332 332 333 333 333 334 334 335 336 337 337 338 338 338 338 338 339 339 339 340 340 340 341 341 342 343 343 344 344 345 345 345 345 345 345 344 344 344 344 344 344 344 344 344 344 344 343 343 343 342 342 342 342 343 343 343 344 343 343 342 342 340 339 337 335 333 332 330 328 327 325 323 321 318 316 313 311 309 308 307 306 305 305 304 304 304
332 332 333 333 333 334 335 336 337 337 338 338 338 338 338 339 339 339 340 340 340 341 341 342 342 343 344 344 345 345 346 346 345 345 345 345 344 344 344 344 343 343 343 344 344 343 343 343 343 343 343 343 343 343 344 344 344 344 344 343 342 341 340 338 337 334 332 330 328 326 324 322 320 318 316 314 312 311 309 308 308 307 307 306 305 305
332 332 333 333 334 335 335 336 337 338 338 338 338 339 339 339 339 340 340 340 341 341 341 342 343 343 344 345 345 346 346 346 346 346 345 345 345 344 344 344 343 343 343 343 343 343 343 343 343 343 343 343 344 344 344 345 345 345 344 343 343 342 341 340 338 336 334 331 329 326 324 322 320 318 316 314 312 311 310 309 308 308 307 306 306 305
332 332 333 334 334 335 336 337 338 338 338 338 338 339 339 339 340 340 340 341 341 341 342 342 343 344 345 345 346 346 346 346 346 346 346 345 345 345 345 344 344 343 343 343 343 343 343 343 344 344 344 344 344 344 345 345 345 345 344 344 343 342 342 341 340 338 336 334 331 328 326 323 320 318 316 314 313 311 310 309 308 307 306 305 305 305
332 332 333 334 335 336 337 337 338 338 339 339 339 339 339 340 340 340 341 341 341 342 342 343 344 344 345 345 346 346 347 347 347 346 346 346 346 345 345 344 344 343 343 343 343 343 343 343 343 344 344 344 344 344 345 345 345 345 345 344 343 343 342 341 340 339 338 336 334 332 329 326 324 321 319 317 315 313 311 310 309 308 307 306 306 306
332 333 333 334 335 336 337 338 338 338 339 339 339 339 340 340 340 341 341 341 342 342 343 343 344 344 345 346 346 347 347 347 347 347 346 346 346 346 345 345 344 343 342 342 342 342 342 343 343 344 344 344 344 344 345 345 345 345 345 344 343 342 342 341 340 340 339 338 337 335 334 332 329 327 324 322 320 317 315 313 312 311 310 309 309 310
332 333 333 334 335 336 337 338 338 338 339 339 339 340 340 340 341 341 341 342 342 343 343 344 344 345 346 346 347 347 347 347 347 347 346 346 346 346 346 345 344 343 342 342 342 342 342 342 343 343 344 344 344 344 344 345 345 345 344 344 343 342 341 341 340 340 339 339 338 337 337 336 335 333 331 329 327 324 322 320 318 317 316 316 316 317
332 333 334 335 336 336 337 338 338 339 339 339 340 340 340 341 341 341 342 342 343 343 344 345 345 346 346 346 347 347 347 347 347 347 347 346 346 346 346 346 345 344 343 342 342 342 342 342 343 343 343 344 344 344 344 345 345 345 344 344 343 342 341 340 339 339 338 338 338 338 338 338 338 337 337 335 334 331 330 328 326 325 325 324 325 325
333 333 334 335 336 337 337 338 338 339 339 340 340 341 341 341 341 342 342 343 343 344 345 345 345 346 346 346 346 347 347 347 347 347 347 346 346 346 346 346 346 345 344 342 342 341 342 342 342 343 343 343 344 344 344 344 345 344 344 343 342 341 341 340 339 338 338 338 337 337 338 338 339 339 339 339 338 336 335 334 332 332 331 331 331 330
333 334 335 336 337 337 338 338 339 339 340 340 341 341 341 341 342 342 343 343 344 344 345 345 346 346 346 346 346 347 347 347 347 347 347 347 347 347 347 346 346 346 345 343 342 341 341 342 342 343 343 343 344 344 344 344 344 344 344 343 342 341 340 339 339 338 338 337 337 337 337 337 338 339 339 339 339 338 337 336 335 334 334 333 333 332
334 335 336 337 337 338 338 339 339 340 340 341 341 341 342 342 342 342 343 343 344 344 345 345 346 346 346 346 346 347 347 347 347 347 347 347 347 347 347 347 347 346 346 344 342 341 341 342 342 343 343 343 344 344 345 345 344 344 344 343 342 341 340 339 339 338 338 337 337 337 337 337 337 338 338 338 338 337 337 336 335 334 334 333 333 332
335 336 337 337 338 338 339 339 340 340 341 341 341 342 342 342 342 343 343 343 344 344 345 345 346 346 346 346 346 346 347 347 347 347 347 347 347 347 347 347 347 347 346 345 344 342 342 342 342 343 343 344 344 345 345 345 344 344 344 343 342 341 341 340 339 339 339 338 338 338 337 337 337 337 337 337 337 336 336 335 334 334 333 333 332 331
336 336 337 338 338 339 339 340 340 341 341 341 342 342 342 342 343 343 343 344 344 345 345 345 346 346 346 346 346 347 347 347 347 347 347 347 347 347 347 347 347 347 347 346 345 344 343 342 342 343 343 344 344 345 345 345 345 345 344 344 343 342 342 341 341 340 340 340 339 339 338 338 337 337 337 336 336 335 335 334 334 334 334 333 332 331
337 337 338 338 338 339 339 340 340 341 341 342 342 342 342 342 343 343 343 344 344 345 345 346 346 346 346 347 347 347 347 347 347 347 347 347 347 348 348 348 348 347 347 347 346 345 344 343 343 343 344 344 345 345 345 345 346 346 346 345 345 344 344 343 343 342 342 342 341 340 340 339 338 337 336 336 335 335 335 335 335 335 335 334 333 332
337 338 338 338 339 339 340 340 341 341 342 342 342 343 343 343 343 343 344 344 345 345 346 346 346 346 347 347 347 347 347 347 347 347 347 347 348 348 348 348 348 348 347 347 347 346 346 345 344 344 344 345 345 345 346 346 347 347 347 348 347 347 347 346 345 344 344 343 343 342 341 339 338 337 337 336 335 335 335 336 337 337 337 336 334 333
337 338 338 338 339 339 340 341 341 342 342 343 343 343 343 343 343 344 344 345 345 345 346 346 346 347 347 347 347 347 347 347 348 348 348 348 348 348 348 349 349 349 348 348 347 347 346 346 346 346 345 346 346 346 346 347 348 348 349 350 350 350 350 349 348 347 346 345 344 343 341 340 339 338 337 336 335 336 336 338 339 340 340 338 336 334
337 338 338 339 339 340 341 341 342 343 343 343 343 343 343 343 344 344 344 345 345 346 346 347 347 347 347 347 347 347 347 348 348 348 348 348 348 348 349 349 349 350 349 349 348 347 347 347 347 347 347 347 347 347 347 348 349 350 351 352 352 353 353 352 351 350 348 347 345 344 343 341 340 338 337 336 336 336 337 339 341 342 342 341 339 337
338 338 339 339 340 341 341 342 343 343 344 344 344 344 344 344 344 344 345 345 346 346 346 347 347 347 347 348 348 347 348 348 348 348 348 348 348 349 349 349 350 350 350 350 349 349 348 347 347 347 348 348 348 348 348 349 350 351 352 353 354 355 355 355 354 353 351 349 348 346 344 343 341 339 338 337 336 337 338 341 343 344 344 344 342 341
338 338 339 340 341 341 342 343 343 344 344 344 344 344 344 344 344 344 345 345 346 346 347 347 347 348 348 348 348 348 348 348 348 348 348 349 349 349 349 349 350 351 351 351 350 350 349 348 348 348 348 349 349 349 349 350 351 352 353 354 356 356 357 357 356 356 354 353 351 349 347 345 343 341 339 338 337 338 339 342 344 346 347 347 347 347
338 339 340 340 341 342 343 343 344 344 344 344 344 344 344 344 344 345 345 346 346 347 347 347 348 348 348 348 348 348 348 348 348 349 349 349 349 349 349 350 350 351 351 351 351 350 350 349 349 349 349 349 350 350 350 351 352 353 354 355 356 357 358 358 358 358 357 356 354 353 351 349 346 343 341 339 338 339 341 343 346 348 349 351 353 353
339 339 340 341 342 342 343 344 344 344 345 345 344 344 344 345 345 345 346 346 347 347 347 348 348 348 348 348 349 349 349 349 349 349 349 349 349 349 350 350 350 351 351 352 351 351 350 350 349 349 349 350 350 351 351 352 353 353 354 355 356 358 359 359 0 0 0 359 358 356 354 352 349 346 343 340 340 341 343 345 348 350 352 354 356 358
339 340 340 341 342 342 343 344 344 345 345 345 345 345 345 345 345 346 347 347 347 348 348 348 348 348 349 349 349 349 349 349 349 349 349 349 349 350 350 350 350 351 351 351 352 351 351 350 350 350 350 351 351 352 352 352 353 354 355 355 356 357 358 360 1 2 3 3 2 0 358 355 352 349 345 343 342 343 345 348 350 352 353 355 357 359
339 340 340 341 342 343 343 344 344 345 345 345 345 345 345 345 346 347 347 348 348 348 348 348 349 349 349 349 349 350 350 350 350 350 349 349 349 350 350 350 350 351 351 351 352 352 351 351 350 350 351 352 352 352 353 353 353 354 355 355 355 356 358 359 1 3 4 5 5 3 1 359 355 352 349 346 346 346 348 351 353 355 355 356 356 357
339 340 340 341 342 343 344 344 345 345 345 345 345 345 346 346 347 347 348 348 349 349 349 349 349 349 349 349 350 350 350 350 350 350 350 349 349 349 350 350 350 351 351 352 352 352 352 351 351 351 351 352 353 353 353 353 353 353 354 354 355 355 357 358 0 2 4 6 7 6 4 2 359 356 353 351 350 351 352 354 356 357 357 357 356 356
339 340 341 342 342 343 344 344 345 345 345 345 346 346 346 347 347 348 348 349 349 349 349 350 350 350 350 350 350 350 350 350 350 350 350 349 349 349 349 350 350 351 351 352 352 352 352 352 351 351 352 353 354 354 354 354 353 353 353 353 354 355 356 357 359 0 2 5 6 7 6 5 3 1 358 355 354 354 355 356 358 358 358 357 356 355
340 340 341 342 343 343 344 344 345 345 346 346 346 346 346 347 347 348 348 349 349 349 350 350 350 350 350 350 350 350 350 350 350 350 350 349 349 349 349 349 350 350 351 352 352 352 352 352 352 352 352 353 354 354 354 354 353 353 352 352 353 353 354 355 357 358 360 2 4 6 6 6 5 4 2 359 357 356 356 357 358 358 358 357 355 354
340 340 341 342 343 343 344 345 345 346 346 346 346 346 346 347 347 348 348 349 349 350 350 350 350 350 351 351 351 351 350 350 350 350 349 349 349 349 349 349 349 350 351 352 352 352 352 352 352 353 353 354 354 355 355 354 353 353 352 352 352 353 353 354 354 355 356 358 0 3 4 5 6 5 4 2 359 357 356 356 357 357 357 356 354 353
340 341 342 342 343 344 345 345 346 346 346 346 346 346 347 347 348 348 349 349 349 350 350 350 350 351 351 351 351 351 351 350 350 350 350 349 349 349 349 349 349 349 350 351 352 352 353 353 353 353 353 354 354 355 355 354 354 353 353 353 352 352 352 352 352 353 353 355 357 359 2 4 5 6 5 4 2 359 357 356 356 356 356 355 354 353
340 341 342 343 343 344 345 345 346 346 346 346 346 346 347 347 348 348 349 349 349 350 350 350 350 351 351 351 351 351 351 351 350 350 350 349 349 349 349 349 349 349 349 350 351 352 353 353 354 354 354 354 355 355 355 355 355 354 354 353 353 352 352 351 351 351 352 353 354 356 359 2 4 6 6 6 4 2 359 357 356 355 355 354 354 353
341 341 342 343 344 344 345 345 346 346 346 346 346 347 347 347 348 348 349 349 350 350 350 350 350 351 351 351 351 351 351 351 351 350 350 350 350 349 349 349 349 349 349 349 350 350 352 353 354 354 355 355 355 356 355 355 355 355 355 354 353 352 352 351 350 350 351 352 353 355 359 2 4 6 7 7 7 5 2 359 357 356 355 355 354 353
341 342 342 343 344 345 345 346 346 346 346 346 347 347 347 348 348 349 349 349 350 350 350 350 350 351 351 351 352 351 351 351 351 351 350 350 350 350 350 350 350 349 349 349 349 350 350 352 353 354 355 356 356 357 357 357 356 356 356 355 354 353 352 351 351 350 351 352 353 356 359 3 6 8 10 10 10 9 6 3 360 357 356 356 355 354
341 342 342 343 344 345 346 346 346 346 346 347 347 347 347 348 348 349 349 350 350 350 350 350 351 351 351 351 352 351 351 351 351 351 351 351 351 351 351 351 351 351 350 350 350 350 350 350 352 353 355 356 357 358 358 358 358 357 357 356 356 355 354 353 352 352 352 353 355 358 1 5 9 11 13 14 14 13 10 7 4 1 358 357 356 355
341 342 343 344 344 345 346 346 346 346 347 347 347 347 348 348 349 349 350 350 350 350 350 351 351 351 351 352 352 352 351 351 351 351 351 351 351 352 352 352 352 352 352 351 351 350 350 350 350 352 354 356 357 359 360 360 360 359 359 358 358 357 356 355 354 353 354 355 357 360 3 7 11 14 15 16 16 16 15 12 9 5 2 359 358 357
341 342 343 344 345 345 346 346 346 347 347 347 347 348 348 349 349 350 350 350 350 350 350 351 351 351 352 352 352 352 352 351 351 351 351 351 351 352 352 353 353 353 353 353 353 352 351 351 351 351 353 355 357 359 0 1 1 1 1 1 1 360 359 357 356 356 356 357 360 2 5 8 10 13 15 16 17 18 17 16 13 10 6 4 1 360